Regional Weather Roundup
Issued by NWS

Home | Current Version | Previous Version | Graphics & Text | Print | Product List | Glossary On
Versions: 1 2 3 4 5 6 7 8 9 10 11 12 13 14 15 16 17 18 19 20 21 22 23 24 25 26 27 28 29 30 31 32 33 34 35 36 37 38 39 40 41 42 43 44 45 46 47 48 49 50
000
ASUS43 KOAX 242002
RWRNE

WEATHER ROUNDUP FOR NEBRASKA
NATIONAL WEATHER SERVICE OMAHA NE
300 PM CDT MON APR 24 2017

NOTES: SATELLITE DATA IS BEING USED TO AUGMENT CLOUD COVER ABOVE
       12000 FEET.
       "FAIR" INDICATES FEW OR NO CLOUDS BELOW 12,000 FEET WITH NO
       SIGNIFICANT WEATHER AND/OR OBSTRUCTIONS TO VISIBILITY.

  * THESE STATIONS DO NOT REPORT WEATHER SUCH AS RAIN...SNOW OR FOG.

NEZ001>004-019>022-054>056-242100-
NEBRASKA PANHANDLE

CITY           SKY/WX    TMP DP  RH WIND       PRES   REMARKS
SCOTTSBLUFF    SUNNY     65  31  28 W6        29.61F
ALLIANCE       CLOUDY    64  32  30 N12G20    29.58F
CHADRON        MOSUNNY   64  34  32 NW16      29.58F
KIMBALL        CLOUDY    63  33  32 NW14      29.64S
SIDNEY         SUNNY     65  35  33 N12G23    29.62F
$$

NEZ057>060-069>072-079>082-242100-
SOUTHWEST NEBRASKA

CITY           SKY/WX    TMP DP  RH WIND       PRES   REMARKS
NORTH PLATTE   MOSUNNY   71  45  39 NW14G24   29.56S
IMPERIAL       SUNNY     73  35  25 NW16G22   29.58F
LEXINGTON      SUNNY     71  41  33 CALM      29.53S
MCCOOK         CLOUDY    78  41  26 NW13G26   29.53S
OGALLALA       MOSUNNY   73  33  22 NW13      29.57S
$$

NEZ005>010-023>029-035>040-094-242100-
NORTH CENTRAL NEBRASKA

CITY           SKY/WX    TMP DP  RH WIND       PRES   REMARKS
VALENTINE      MOSUNNY   58  39  49 NW21G28   29.59R
AINSWORTH      MOSUNNY   57  44  61 NW13G21   29.58S
BROKEN BOW     SUNNY     69  42  37 N14G22    29.55R
O`NEILL        SUNNY     64  42  45 NW17      29.54S
ORD            SUNNY     68  41  37 VRB3      29.52S
THEDFORD       SUNNY     66  42  42 N18       29.58R
$$

NEZ041-046>049-061>064-073>077-083>087-242100-
SOUTH CENTRAL NEBRASKA

CITY           SKY/WX    TMP DP  RH WIND       PRES   REMARKS
GRAND ISLAND   PTSUNNY   72  42  34 W7        29.52F
AURORA         SUNNY     73  40  30 SW15G21   29.51F
HASTINGS       SUNNY     72  40  31 S12G24    29.52F
HEBRON         CLOUDY    73  41  31 S24G35    29.54F
HOLDREGE       SUNNY     69  38  32 NW8       29.53S
KEARNEY *      SUNNY     68  39  34 W8        29.53F
YORK           SUNNY     73  39  29 S17G29    29.52F
$$

NEZ011>018-030>034-042>045-242100-
NORTHEAST NEBRASKA

CITY           SKY/WX    TMP DP  RH WIND       PRES   REMARKS
NORFOLK        CLOUDY    68  39  34 S15       29.52F
ALBION         CLOUDY    64  40  40 SW10      29.53F
BLAIR          CLOUDY    75  39  27 S25G35    29.57S
FREMONT        PTSUNNY   73  40  30 S21       29.55F
TEKAMAH        CLOUDY    73  40  30 S24G33    29.55F
WAYNE          CLOUDY    66  42  40 S18       29.53F
$$

NEZ050>053-065>068-078-088>093-242100-
SOUTHEAST NEBRASKA

CITY           SKY/WX    TMP DP  RH WIND       PRES   REMARKS
LINCOLN        MOSUNNY   75  42  30 S25G35    29.56S
OMAHA EPPLEY   CLOUDY    73  36  25 S26G36    29.57F
BEATRICE       CLOUDY    72  44  35 S24G35    29.57F
FALLS CITY     CLOUDY    71  38  29 S24G36    29.60F
NEBRASKA CITY  MOSUNNY   71  28  20 S29G36    29.60S
PLATTSMOUTH    MOSUNNY   73  28  19 S22G38    29.59S
$$

NEZ044-045-051>053-067-242100-
OMAHA AREA

CITY           SKY/WX    TMP DP  RH WIND       PRES   REMARKS
OMAHA EPPLEY   CLOUDY    73  36  25 S26G36    29.57F
BLAIR          CLOUDY    75  39  27 S25G35    29.57S
FREMONT        PTSUNNY   73  40  30 S21       29.55F
MILLARD        CLOUDY    74  41  30 S21G32    29.58S
OFFUTT AFB     CLOUDY    73  37  26 S20G38    29.57F
PLATTSMOUTH    MOSUNNY   73  28  19 S22G38    29.59S
WAHOO          MOCLDY    75  37  25 S28G33    29.56F
$$




USA.gov is the U.S. government's official web portal to all federal, state and local government web resources and services.